FW1823 Weather Reports


time (UTC)temp
C
wind
direction
speed
KPH
gust
KPH
rain 1hr
cm
rain 24hr
cm
rain mn
cm
humidity
%
barometer
mb
20260502211535 22 171 1.6 4.8 1.27 1.30 1.30 1 1010.0
20260502210029 22 242 1.6 4.8 1.24 1.24 1.24 1 1010.2
20260502204525 22 209 1.6 6.4 1.24 1.24 1.24 1 1010.0
20260502203021 23 264 0.0 8.0 1.24 1.24 1.24 1 1009.8
20260502201524 26 279 8.0 29.0 0.00 0.00 0.00 1 1010.4
20260502200012 27 242 1.6 9.7 0.00 0.00 0.00 1 1009.6
20260502194509 27 234 6.4 16.1 0.00 0.00 0.00 1 1009.6
20260502193003 27 185 3.2 16.1 0.00 0.00 0.00 1 1010.0
20260502191601 27 240 4.8 14.5 0.00 0.00 0.00 1 1010.2
20260502190054 27 214 8.0 16.1 0.00 0.00 0.00 1 1010.1
20260502184549 28 240 4.8 17.7 0.00 0.00 0.00 1 1010.2
20260502183046 28 205 9.7 17.7 0.00 0.00 0.00 1 1010.4
20260502181557 28 213 8.0 17.7 0.00 0.00 0.00 1 1010.3
20260502163015 29 123 12.9 24.1 0.00 0.00 0.00 1 1010.5
20260502161504 29 237 8.0 20.9 0.00 0.00 0.00 1 1010.9
20260502151602 29 156 9.7 25.7 0.00 0.00 0.00 1 1010.5
20260502123005 22 159 6.4 12.9 0.00 0.00 0.00 1 1009.6
20260502121600 21 137 4.8 11.3 0.00 0.00 0.00 1 1009.5
20260502114556 20 126 3.2 6.4 0.00 0.00 0.00 1 1009.6
20260502113053 20 126 3.2 6.4 0.00 0.00 0.00 1 1009.4
20260502111550 20 112 4.8 9.7 0.00 0.00 0.00 1 1009.4
20260502110046 20 112 1.6 9.7 0.00 0.00 0.00 1 1009.2
20260502104542 20 130 4.8 8.0 0.00 0.00 0.00 1 1009.2
20260502103037 20 149 6.4 14.5 0.00 0.00 0.00 1 1008.8
20260502101537 20 123 4.8 9.7 0.00 0.00 0.00 1 1009.0
20260502091515 20 151 3.2 4.8 0.00 0.00 0.00 1 1009.4
20260502080105 20 182 0.0 1.6 0.00 0.00 0.00 1 1009.7